Rexburg, ID

2:21 AM MST on February 18, 2018 (GMT -0700)
Rexburg-Madison County

Weather History for KRXE - December, 2013

Change the Weather History Date:

Friday, December 20, 2013

  Actual Average Record
Temperature  
Mean Temperature 17 °F 20 °F  
Max Temperature 22 °F 28 °F 40 °F (2003)
Min Temperature 12 °F 12 °F -9 °F (2008)
Degree Days  
Heating Degree Days 48 45  
Month to date heating degree days 1067 875  
Since 1 July heating degree days 2830 2887  
Cooling Degree Days 0 0  
Month to date cooling degree days 0 0  
Year to date cooling degree days 452 208  
Moisture  
Dew Point 13 °F    
Average Humidity 80    
Maximum Humidity 92    
Minimum Humidity 67    
Precipitation  
Precipitation 0.05 in 0.04 in 0.36 in (1981)
Month to date precipitation 0.47 0.58  
Year to date precipitation 8.13 12.61  
Sea Level Pressure  
Sea Level Pressure 29.92 in    
Wind  
Wind Speed 7 mph (SSW)    
Max Wind Speed 23 mph    
Max Gust Speed 30 mph    
Visibility 5 miles    
Events Snow    
T = Trace of Precipitation, MM = Missing Value Source: NWS Daily Summary

Daily Weather History Graph

Daily Weather History Graph

Search for Another Location

Airport or City:

Trip Planner

Search our weather history database for the weather conditions in past years. The results will help you decide how hot, cold, wet, or windy it might be!

Date:

Astronomy

Dec. 20, 2013 Rise Set
Actual Time 7:57 AM MST 4:52 PM MST
Civil Twilight 7:24 AM MST 5:25 PM MST
Nautical Twilight 6:48 AM MST 6:01 PM MST
Astronomical Twilight 6:13 AM MST 6:36 PM MST
Moon 8:22 PM MST (12/20) 9:48 AM MST (12/20)
Length of Visible Light 10h 00m
Length of Day
8h 54m
Waning Gibbous, 90% of the Moon is Illuminated
Dec 20
Waning Gibbous
Dec 25
Last Quarter
Jan 1
New
Jan 7
First Quarter
Jan 15
Full

Hourly Weather History & Observations

Time (MST) Temp. Windchill Dew Point Humidity Pressure Visibility Wind Dir Wind Speed Gust Speed Precip Events Conditions
12:28 AM 12.9 °F -0.9 °F 10.0 °F 88% 29.92 in 1.5 mi SSW 11.5 mph - N/A   Mostly Cloudy
12:50 AM 15.8 °F 3.4 °F 12.2 °F 86% 29.92 in 3.0 mi SSW 10.4 mph - N/A   Overcast
12:51 AM 15.1 °F 4.2 °F 12.9 °F 91% 30.07 in 3.0 mi SSW 8.1 mph - N/A   Overcast
1:11 AM 15.1 °F 3.3 °F 12.9 °F 91% 29.92 in 2.5 mi SW 9.2 mph - N/A   Overcast
1:19 AM 15.1 °F 3.3 °F 12.9 °F 91% 29.92 in 3.0 mi SW 9.2 mph - N/A   Overcast
1:53 AM 12.9 °F 2.6 °F 10.9 °F 92% 30.08 in 9.0 mi WSW 6.9 mph - N/A   Overcast
2:22 AM 12.9 °F 6.9 °F 10.9 °F 92% 29.93 in 1.8 mi West 3.5 mph - N/A   Overcast
2:53 AM 14.0 °F - 10.9 °F 88% 30.08 in 2.0 mi Calm Calm - N/A   Overcast
3:02 AM 14.0 °F - 10.9 °F 88% 29.93 in 6.0 mi Calm Calm - N/A   Overcast
3:53 AM 12.9 °F 6.9 °F 10.0 °F 88% 30.07 in 10.0 mi North 3.5 mph - N/A   Overcast
4:10 AM 14.0 °F 6.5 °F 10.0 °F 84% 29.91 in 10.0 mi North 4.6 mph - N/A   Overcast
4:53 AM 12.9 °F 2.6 °F 10.0 °F 88% 30.07 in 10.0 mi NE 6.9 mph - N/A   Overcast
5:32 AM 12.0 °F 1.5 °F 8.1 °F 84% 29.91 in 10.0 mi NE 6.9 mph - N/A   Overcast
5:53 AM 12.0 °F 0.5 °F 8.1 °F 84% 30.10 in 10.0 mi NE 8.1 mph - N/A   Overcast
6:53 AM 12.9 °F 3.8 °F 9.0 °F 84% 30.09 in 6.0 mi NE 5.8 mph - 0.00 in Snow Light Snow
7:34 AM 12.9 °F 3.8 °F 10.0 °F 88% 29.91 in 6.0 mi NE 5.8 mph - 0.00 in Snow Light Snow
7:53 AM 12.9 °F 6.9 °F 10.0 °F 88% 30.09 in 6.0 mi ENE 3.5 mph - 0.00 in Snow Light Snow
8:09 AM 14.0 °F 6.5 °F 10.0 °F 84% 29.90 in 5.0 mi ENE 4.6 mph - 0.00 in Snow Light Snow
8:53 AM 15.1 °F - 12.0 °F 88% 30.11 in 6.0 mi Calm Calm - 0.00 in   Overcast
9:53 AM 16.0 °F - 12.9 °F 88% 30.10 in 8.0 mi Calm Calm - 0.00 in   Overcast
10:53 AM 17.1 °F 4.3 °F 14.0 °F 88% 30.12 in 10.0 mi SSW 11.5 mph - N/A   Overcast
11:53 AM 17.1 °F 5.0 °F 14.0 °F 88% 30.08 in 10.0 mi SSW 10.4 mph - 0.00 in   Overcast
12:53 PM 17.1 °F 4.3 °F 14.0 °F 88% 30.06 in 5.0 mi SW 11.5 mph - 0.00 in Snow Light Snow
1:50 PM 17.6 °F 5.0 °F 12.2 °F 79% 29.87 in 8.0 mi SSW 11.5 mph - 0.00 in   Overcast
1:53 PM 18.0 °F 6.9 °F 12.0 °F 78% 30.05 in 9.0 mi SSW 9.2 mph - 0.00 in   Overcast
2:53 PM 19.0 °F 10.0 °F 12.0 °F 74% 30.03 in 10.0 mi SSW 6.9 mph - N/A   Overcast
3:40 PM 19.9 °F 8.6 °F 10.9 °F 68% 29.84 in 10.0 mi SSW 10.4 mph - N/A   Overcast
3:53 PM 19.9 °F 8.6 °F 10.9 °F 68% 30.00 in 10.0 mi SSW 10.4 mph - N/A   Overcast
4:53 PM 19.0 °F 12.3 °F 10.9 °F 71% 29.99 in 10.0 mi SSW 4.6 mph - N/A   Overcast
5:53 PM 19.0 °F 12.3 °F 10.9 °F 71% 29.97 in 10.0 mi West 4.6 mph - N/A   Overcast
6:53 PM 19.0 °F 11.1 °F 12.9 °F 77% 29.94 in 10.0 mi South 5.8 mph - N/A   Overcast
7:53 PM 21.9 °F 10.4 °F 10.9 °F 63% 29.91 in 10.0 mi South 11.5 mph 19.6 mph 0.00 in Snow Light Snow
8:06 PM 21.0 °F 5.7 °F 14.0 °F 74% 29.75 in 2.5 mi SSW 19.6 mph 29.9 mph 0.00 in Snow Light Snow
8:15 PM 19.9 °F 5.7 °F 16.0 °F 85% 29.75 in 1.2 mi South 16.1 mph 25.3 mph 0.00 in Snow Light Snow
8:28 PM 19.9 °F 8.6 °F 17.1 °F 89% 29.75 in 0.8 mi SSW 10.4 mph 27.6 mph 0.00 in Snow Light Snow
8:42 PM 19.9 °F 7.9 °F 18.0 °F 92% 29.75 in 1.0 mi SSW 11.5 mph - 0.01 in Snow Light Snow
8:53 PM 19.9 °F 7.9 °F 17.1 °F 89% 29.90 in 1.2 mi SSW 11.5 mph - 0.01 in Snow Light Snow
9:37 PM 19.9 °F 9.3 °F 18.0 °F 92% 29.74 in 1.0 mi SSW 9.2 mph - 0.01 in Snow Light Snow
9:51 PM 21.2 °F 8.9 °F 17.6 °F 86% 29.73 in 1.0 mi SSW 12.7 mph - 0.02 in Snow Light Snow
9:53 PM 21.0 °F 8.1 °F 18.0 °F 88% 29.88 in 1.2 mi SSW 13.8 mph - 0.02 in Snow Light Snow
10:44 PM 19.9 °F 7.9 °F 18.0 °F 92% 29.72 in 1.8 mi South 11.5 mph - 0.01 in Snow Light Snow
10:49 PM 21.2 °F 9.5 °F 17.6 °F 86% 29.73 in 3.0 mi SSW 11.5 mph - 0.01 in Snow Light Snow
10:53 PM 21.0 °F 11.4 °F 18.0 °F 88% 29.87 in 3.0 mi South 8.1 mph - 0.01 in Snow Light Snow
11:20 PM 19.9 °F 11.1 °F 18.0 °F 92% 29.72 in 1.8 mi South 6.9 mph - 0.00 in Snow Light Snow
11:46 PM 19.9 °F 11.1 °F 18.0 °F 92% 29.71 in 1.0 mi South 6.9 mph - 0.01 in Snow Light Snow
11:53 PM 19.9 °F 10.1 °F 18.0 °F 92% 29.85 in 1.2 mi South 8.1 mph - 0.01 in Snow Light Snow
11:59 PM 19.9 °F 11.1 °F 18.0 °F 92% 29.71 in 2.0 mi South 6.9 mph - 0.00 in Snow Light Snow